Wind_Speed
18 17 18 15 15 15 15 15 13 14 13 14 15 13 11 11 11 11 10 9 8 7 8 8 8 8 9 9 9 10 11 12 13 13 12 13 13 12 13 9 11 10 11
19 16 18 16 15 14 13 13 14 14 14 15 14 12 11 10 11 10 10 9 8 7 7 9 8 8 9 8 9 11 10 12 11 12 12 12 11 11 12 9 15 11 11
17 16 16 17 15 14 13 13 14 16 15 15 13 12 10 9 9 10 10 10 9 7 7 8 8 9 8 8 8 11 10 11 11 12 13 15 10 10 10 10 11 12 11
17 15 15 17 16 15 13 13 14 14 15 14 13 11 8 9 9 10 10 9 8 8 8 9 8 8 8 8 10 10 8 9 10 6 4 7 10 9 10 9 10 10 11
15 15 18 17 15 15 15 14 14 14 14 13 12 10 8 8 10 9 9 9 10 9 9 9 8 8 9 9 11 10 8 9 6 3 6 11 7 7 8 9 9 10 7
16 22 17 17 16 15 15 15 15 14 14 12 11 9 9 8 9 9 8 9 9 10 10 9 8 9 9 10 9 8 8 10 5 4 7 6 13 8 8 7 7 7 6
20 19 16 15 16 15 15 15 15 14 13 10 10 11 9 8 7 7 7 8 9 9 9 8 8 8 9 9 9 8 8 6 4 7 8 3 8 6 7 5 4 5 5
13 16 14 16 15 15 14 15 15 15 14 13 10 9 9 10 7 7 6 7 8 8 9 8 9 9 9 10 9 8 8 6 4 6 3 7 4 6 5 5 5 4 4
11 14 14 13 13 13 14 14 14 13 12 11 10 8 9 9 7 6 6 6 8 8 8 8 9 10 9 10 8 7 5 7 7 5 5 7 6 7 7 4 6 6 4
9 14 13 14 11 11 12 14 14 13 12 11 10 10 10 9 7 7 7 8 7 7 9 9 9 10 10 10 9 6 5 8 9 8 5 6 2 4 8 5 5 4 5
10 12 14 15 14 11 11 14 14 13 13 12 11 12 11 9 9 9 7 9 7 8 8 9 10 10 10 11 11 9 8 8 11 8 5 10 4 5 8 7 6 6 5
12 8 11 11 11 8 10 11 15 13 13 13 13 13 12 10 11 3 7 8 7 8 9 10 10 11 11 11 12 11 10 11 13 10 8 6 3 6 6 8 7 7 7
11 9 10 9 15 15 12 9 11 13 13 13 13 12 11 9 9 10 11 8 9 9 9 9 10 11 12 13 13 12 10 10 12 7 5 5 5 8 7 8 9 8 9
10 10 10 11 12 11 11 8 12 12 11 12 13 13 12 11 11 11 11 7 10 9 7 10 10 13 13 13 8 15 10 10 9 12 10 8 6 7 9 9 10 10 10
9 8 11 10 9 8 11 11 10 12 12 12 13 13 12 11 10 10 11 10 11 10 11 7 9 7 10 10 11 10 11 11 12 10 15 16 8 9 10 11 13 12 13
10 10 12 10 10 8 8 11 12 9 7 14 12 16 14 14 14 12 12 11 11 8 8 9 10 9 9 12 11 11 13 13 13 12 12 12 11 10 14 13 12 15 15
11 9 12 10 9 9 7 9 11 14 10 10 12 7 12 14 11 14 13 13 11 10 7 7 6 7 8 10 8 7 11 12 12 13 13 15 11 13 13 15 13 15 16
9 9 10 10 10 10 10 9 8 10 12 12 13 14 11 13 12 13 11 11 12 10 10 10 8 11 13 13 11 11 10 11 13 13 14 14 14 9 16 12 14 17 17
9 10 11 11 10 10 10 10 8 7 10 14 14 14 15 16 17 14 13 13 10 11 14 12 11 11 12 11 9 14 13 13 15 16 16 16 15 16 11 15 17 15 17
9 10 12 12 11 10 8 8 7 8 9 10 14 18 16 17 18 19 19 15 16 12 14 16 12 14 16 15 13 14 7 9 15 16 15 16 14 11 19 19 18 15 13
9 11 13 13 13 11 9 9 7 6 4 7 10 14 17 19 20 19 20 14 12 14 15 9 10 12 12 13 11 13 14 15 17 18 13 12 7 10 14 17 17 13 15
11 11 11 12 13 11 8 6 5 3 1 4 3 4 10 14 15 16 15 19 11 12 15 15 15 15 17 17 8 6 7 7 11 12 12 10 8 9 12 14 11 12 15
13 13 12 12 13 12 8 7 6 4 5 4 4 3 3 5 9 13 14 17 17 15 18 16 16 17 17 13 10 8 2 3 1 7 8 5 4 7 8 9 8 7 9
13 11 11 12 13 12 11 9 5 4 3 6 1 2 3 5 6 7 9 11 13 15 16 21 20 21 18 15 9 12 10 4 1 2 5 3 1 1 3 2 6 6 7
14 12 12 12 14 12 11 9 7 3 1 1 3 4 3 5 6 11 8 10 13 17 15 15 16 16 19 15 14 8 11 16 20 5 4 4 2 1 1 4 6 4 3
15 13 12 13 14 12 11 10 7 3 2 2 3 5 6 7 8 9 11 9 9 10 12 9 9 11 11 12 13 15 14 9 12 12 7 6 4 1 2 4 3 3 5
Wind_Direction
140 149 158 153 148 146 152 167 162 160 156 156 153 147 138 135 127 127 135 125 120 114 112 111 137 121 107 108 106 101 101 104 101 102 102 104 100 109 108 105 125 105 108
136 149 157 157 152 150 152 158 168 170 163 158 151 152 145 142 139 140 132 129 123 119 115 109 115 124 116 115 112 106 109 106 107 118 113 112 104 111 106 73 101 116 115
132 149 155 162 158 154 150 151 162 168 165 160 155 154 151 150 147 138 136 139 137 127 127 120 126 123 119 122 121 115 110 113 112 117 144 114 109 109 110 112 102 110 110
139 148 160 165 163 161 158 150 152 157 165 163 159 162 159 161 158 145 143 140 137 130 129 127 131 125 123 127 117 118 115 119 127 137 188 107 116 114 111 116 114 111 122
144 150 160 169 167 163 164 159 155 156 161 165 167 169 165 168 154 153 147 140 134 136 130 134 132 129 132 132 128 126 126 121 132 185 112 80 115 120 124 118 106 104 120
173 141 155 171 167 165 167 166 163 160 164 168 172 176 172 166 154 160 153 144 143 141 137 137 137 141 147 142 142 147 129 144 144 119 87 101 104 119 130 109 136 128 119
126 140 148 173 174 174 173 169 167 169 166 170 174 174 166 158 163 154 158 148 146 143 144 144 148 158 149 151 152 150 147 159 261 130 126 173 113 124 137 128 120 134 139
154 141 156 172 182 184 185 181 175 175 168 170 177 186 172 158 152 152 153 158 153 153 148 158 159 156 155 153 157 166 158 149 195 113 150 138 135 158 145 159 155 156 139
142 139 154 173 184 190 192 194 186 184 177 181 183 179 175 167 162 163 164 158 161 162 164 161 167 167 165 165 166 177 201 207 268 209 175 174 141 174 170 179 181 182 174
168 149 170 169 182 192 203 203 199 192 191 193 189 194 189 198 190 183 183 188 172 166 168 171 178 176 175 177 178 181 203 225 255 261 214 139 109 183 178 197 185 195 198
185 156 176 164 178 206 213 202 204 203 198 197 200 199 198 201 200 201 198 191 188 185 185 183 184 190 190 192 192 195 205 232 272 249 212 159 185 204 192 208 212 216 215
186 185 146 139 159 197 236 209 198 203 204 205 203 200 202 213 205 230 181 189 188 190 194 195 196 195 199 204 209 211 220 220 232 255 142 159 195 212 196 210 224 222 228
182 177 133 143 174 181 198 218 210 204 211 212 205 201 205 206 196 199 188 194 196 206 204 197 206 206 213 236 202 204 210 226 242 239 158 178 222 226 221 216 231 236 231
177 175 156 158 176 194 207 213 215 206 202 208 204 202 196 199 206 205 197 205 188 201 204 206 205 222 216 239 243 235 222 228 225 211 235 262 235 233 234 234 234 240 238
170 166 166 166 172 186 209 231 220 231 200 208 195 200 197 197 200 212 205 199 223 197 197 209 212 222 228 224 241 256 237 246 249 248 222 223 226 242 239 239 240 241 242
172 169 163 178 175 191 221 210 209 221 224 220 210 198 199 211 190 205 211 210 206 212 223 216 205 217 221 235 218 234 241 246 237 247 254 217 238 246 243 242 241 239 241
173 183 174 178 178 165 165 179 198 208 209 229 235 225 200 221 204 215 211 209 221 209 233 228 213 214 235 247 247 236 238 242 255 243 245 261 234 246 241 235 236 235 240
166 177 176 174 170 160 153 166 178 199 208 216 226 233 227 224 223 210 226 216 222 205 219 230 226 229 229 225 228 237 240 247 245 246 254 256 266 262 242 233 245 240 239
171 173 176 171 176 165 159 164 179 195 221 233 234 220 215 217 217 216 215 219 223 233 206 215 226 232 235 246 242 251 250 253 257 255 247 247 246 259 241 239 254 231 247
174 179 181 177 178 182 172 173 194 203 233 244 241 238 229 221 221 226 226 227 226 237 244 214 224 231 244 239 237 259 260 271 272 280 267 251 258 247 256 242 253 228 235
171 170 178 178 180 183 178 172 176 227 217 259 244 241 233 222 222 224 226 219 220 223 235 239 226 238 258 264 274 266 270 275 268 265 262 251 270 250 253 261 280 272 263
172 174 184 180 182 188 177 167 169 167 237 258 271 248 231 219 220 214 213 217 220 235 233 240 237 247 245 255 243 269 270 283 256 252 250 248 275 259 258 264 273 266 266
176 177 185 190 185 190 165 170 160 167 165 189 207 173 182 201 204 211 219 225 237 238 232 232 237 241 245 249 229 230 227 251 255 244 228 231 272 282 272 273 277 272 270
191 180 182 194 197 191 190 189 193 293 52 47 120 161 175 207 210 197 198 218 232 245 248 253 249 243 240 241 228 228 233 246 328 325 199 180 201 336 314 285 286 272 268
196 188 185 195 202 198 198 206 186 221 119 142 191 148 194 197 208 206 209 237 241 249 255 252 247 242 232 237 225 194 230 264 250 228 279 221 197 7 355 333 327 308 313
191 188 188 190 201 201 203 206 211 168 170 202 220 202 196 181 187 201 197 203 219 250 260 255 254 239 232 234 236 234 226 236 227 223 242 234 175 59 344 303 342 25 86
Height
772 781 785 788 791 793 796 798 801 802 803 805 807 809 811 812 812 814 816 817 819 821 821 821 822 824 825 826 826 826 826 827 827 828 829 830 831 832 833 835 836 837 838
773 784 787 790 793 795 797 799 802 803 805 807 808 810 813 813 814 816 816 818 820 822 822 823 823 825 827 828 828 828 829 829 829 830 831 833 834 834 835 836 836 838 840
776 786 788 791 794 796 799 801 802 805 807 808 810 812 813 814 815 816 818 819 821 822 823 824 825 827 828 829 830 830 831 831 831 830 831 832 837 837 837 838 839 840 841
777 785 791 791 794 797 800 802 804 807 808 810 811 813 814 816 817 817 819 820 821 822 824 825 827 828 829 830 831 832 833 833 832 832 832 834 837 838 839 840 841 842 843
778 784 788 793 796 797 800 802 804 807 809 810 812 814 815 817 818 819 820 821 822 823 825 826 828 829 830 832 832 833 834 834 833 832 834 835 837 840 841 842 843 844 845
775 781 787 793 796 799 800 803 805 807 809 811 813 815 817 818 819 820 821 821 823 824 826 828 829 830 832 832 834 834 835 834 833 834 837 838 838 841 843 844 845 846 847
778 785 789 795 798 800 802 804 806 807 810 813 815 816 818 818 821 821 822 823 824 824 826 828 830 831 832 833 835 836 836 835 834 836 838 840 840 842 844 845 846 847 848
778 785 791 795 799 802 804 805 807 807 810 812 815 816 818 819 821 822 823 824 824 825 827 829 830 832 833 834 835 837 837 835 834 836 839 839 840 843 844 846 847 848 849
781 786 791 797 801 803 806 807 808 808 810 812 814 818 819 820 821 823 825 825 825 826 827 829 831 832 833 834 836 837 838 836 834 837 838 838 840 842 844 846 847 848 849
783 787 792 796 802 804 807 808 809 809 811 813 813 815 818 820 821 822 823 825 826 826 828 830 831 832 833 834 836 837 838 836 835 835 837 837 840 842 844 846 847 848 849
784 786 790 794 800 801 806 808 809 811 811 812 814 815 816 818 820 822 823 825 826 827 829 830 831 832 833 834 835 836 837 837 835 833 832 835 839 842 844 845 847 848 849
783 785 789 794 801 804 805 807 808 809 811 812 813 814 816 817 818 820 823 824 826 827 828 830 831 832 833 834 834 835 837 836 835 834 832 835 838 841 843 845 846 848 849
781 785 789 794 799 800 804 806 806 807 808 810 811 813 814 816 818 819 821 823 825 826 827 828 830 831 832 830 831 832 834 834 834 833 835 834 837 840 842 843 845 847 848
780 784 789 792 794 797 800 801 804 805 806 808 810 811 812 815 816 818 819 821 822 824 825 826 827 828 829 830 830 831 831 831 832 833 834 834 836 839 840 841 843 844 846
781 785 789 792 793 796 798 801 803 803 805 807 808 810 811 813 815 816 818 819 820 821 822 824 825 826 828 829 830 830 831 831 831 830 830 832 834 836 838 839 840 843 844
781 783 788 792 793 795 797 798 801 802 803 804 804 805 810 810 812 814 815 817 818 820 821 822 823 825 826 827 828 830 830 830 830 831 830 830 830 832 834 837 838 839 840
779 783 786 790 793 793 794 797 799 800 802 804 804 805 808 809 811 812 813 814 815 818 820 821 822 824 825 825 826 826 828 828 828 829 830 830 830 830 830 832 834 835 837
777 782 786 789 791 792 792 795 797 800 802 803 805 806 807 810 811 812 811 812 815 816 819 820 822 823 823 823 824 824 825 826 826 827 827 828 828 828 829 828 830 831 831
778 782 785 789 792 792 792 794 797 798 800 801 801 802 803 806 808 811 812 813 813 814 815 817 820 821 820 821 822 823 822 823 823 822 823 824 824 825 824 824 823 824 827
776 780 783 786 790 792 793 793 795 797 798 798 798 798 800 802 803 806 808 810 811 813 813 813 816 817 818 818 819 819 819 820 820 819 818 820 820 820 819 820 819 814 818
775 779 782 784 787 790 792 792 792 793 793 795 795 795 796 798 799 802 805 808 810 811 812 812 814 816 816 815 816 816 815 818 818 816 817 816 816 819 819 818 818 816 817
773 777 782 783 786 788 789 790 791 791 793 793 793 792 794 794 796 799 802 805 806 808 809 811 812 814 813 814 815 818 815 816 814 814 814 817 817 817 817 817 816 817 816
769 774 778 782 784 786 786 790 790 790 789 791 791 791 792 793 794 797 799 802 804 806 807 807 809 811 812 813 814 816 818 816 813 811 813 815 816 817 816 816 817 816 815
767 772 776 780 782 783 784 786 786 785 787 788 790 791 792 793 795 796 798 800 802 804 804 804 805 806 809 810 812 813 814 815 814 812 811 814 815 816 816 815 816 816 815
764 768 773 778 781 782 784 785 786 786 788 789 789 791 792 793 794 795 796 799 801 802 802 801 802 803 804 807 808 809 811 811 813 815 813 812 814 815 815 816 815 814 813
761 766 770 775 779 781 783 785 786 786 787 789 790 791 791 792 793 794 795 796 797 799 800 799 800 801 802 803 804 806 808 808 807 809 810 810 812 815 815 815 814 815 814